Location: Cartignies
(50.0929°N, 3.8447°E)
Time: 13:43:54
(UTC+00:00)

NOSS 3-4 (A) - Pass Details

Date: 12 January 2026
Orbit: 769 x 1442 km, 63.4° (Epoch: 10 January)

Event Time Altitude Azimuth Distance (km) Brightness Sun altitude
Rises 19:21:53 0° 234° (SW) 3,245 7.0 -30.5°
Reaches altitude 10° 19:24:14 10° 238° (WSW) 2,346 6.1 -30.9°
Enters shadow 19:28:55 58° 289° (WNW) 965 3.6 -31.6°
